Regional Weather Roundup
Issued by NWS Albany, NY

Home | Current Version | Previous Version | Text Only | Print | Product List | Glossary On
Versions: 1 2 3 4 5 6 7 8 9 10 11 12 13 14 15 16 17 18 19 20 21 22 23 24 25 26 27 28 29 30 31 32 33 34 35 36 37 38 39 40 41 42 43 44 45 46 47 48 49 50
000
ASUS41 KALY 232110
RWRALY

NEW YORK STATE HOURLY WEATHER ROUNDUP
NATIONAL WEATHER SERVICE ALBANY NY
500 PM EDT FRI JUN 23 2017

NOTE: "FAIR" INDICATES FEW OR NO CLOUDS BELOW 12,000 FEET WITH NO
SIGNIFICANT WEATHER AND/OR NO OBSTRUCTIONS TO VISIBILITY.

NYZ032-033-038>043-046>054-057>066-NYZ062>081-082-084-232200-
EAST


CITY           SKY/WX    TMP DP  RH WIND       PRES   REMARKS
ALBANY         CLOUDY    83  69  62 S13       29.57F
GLENS FALLS    PTSUNNY   77  71  82 S10       29.56F
POUGHKEEPSIE   CLOUDY    80  70  71 SW8       29.62F
NEWBURGH       PTSUNNY   79  73  83 SW9       29.66F
MONTGOMERY     CLOUDY    80  71  74 SW13      29.64F
ISLIP          CLOUDY    75  70  84 SW15      29.69F
NEW YORK CITY  PTSUNNY   85  72  65 SW13      29.65F HX  91
CENTRAL PARK   CLOUDY    81  72  74 VRB6      29.69F
$$

NYZ005>009-017-018-044>046-055-056-232200-
CENTRAL


CITY           SKY/WX    TMP DP  RH WIND       PRES   REMARKS
FULTON         LGT RAIN  78  70  76 S7        29.54F
SYRACUSE       CLOUDY    78  69  73 SW13      29.55F
ROME           CLOUDY    79  69  71 SW7       29.57F
ELMIRA         NOT AVBL
BINGHAMTON     CLOUDY    72  66  83 SW8       29.64F
MONTICELLO     CLOUDY    75  70  83 W7        29.69F
$$

NYZ026>034-041>043-087-232200-
NORTH


CITY           SKY/WX    TMP DP  RH WIND       PRES   REMARKS
WATERTOWN      CLOUDY    74  72  93 SW9       29.53S
FORT DRUM      NOT AVBL
OGDENSBURG     PTSUNNY   74  70  88 S6        29.50F
MASSENA        LGT RAIN  76  71  85 SW3       29.51F
SARANAC LAKE   LGT RAIN  68  68 100 SW7       29.60R FOG
PLATTSBURGH    CLOUDY    77  70  79 SE7       29.52F
$$

NYZ001>004-010>016-019>021-085-232200-
WEST


CITY           SKY/WX    TMP DP  RH WIND       PRES   REMARKS
NIAGARA FALLS  LGT RAIN  75  69  81 SW14      29.53F
BUFFALO        LGT RAIN  71  70  96 SW10      29.55F FOG
DUNKIRK        LGT RAIN  75  72  90 SW9       29.55F
JAMESTOWN      CLOUDY    70  64  83 SW10      29.62F
WELLSVILLE     LGT RAIN  72  68  87 SW10G18   29.65F
ROCHESTER      CLOUDY    78  69  73 SW12G24   29.53F
PENN YAN       CLOUDY    75  67  76 S7        29.58F
$$

             KEY
       WCI = WIND CHILL INDEX
       VSB = VISIBILITY
       HX  = HEAT INDEX
$$



USA.gov is the U.S. government's official web portal to all federal, state and local government web resources and services.